Location: Bittkow
(50.3000°N, 19.0000°E)
Time: 14:48:49
(UTC+00:00)

Cosmos 2082 - Pass Details

Date: 19 September 2020
Orbit: 832 x 857 km, 71.0° (Epoch: 27 October)

Event Time Altitude Azimuth Distance (km) Brightness Sun altitude
Rises 02:11:36 0° 326° (NW) 3,417 6.8 -21.2°
Reaches altitude 10° 02:14:10 10° 319° (NW) 2,481 6.0 -20.9°
Maximum altitude 02:19:27 41° 252° (WSW) 1,225 4.0 -20.1°
Enters shadow 02:20:38 36° 223° (SW) 1,318 4.2 -20.0°
Exits shadow 02:26:57 - 178° (S) 3,288 6.5 -19.1°
Sets 02:27:18 0° 177° (S) 3,412 6.6 -19.0°
